EN

Hourly Weather Luis Moya

Today, 13 June, Sunday

Time Temperature Precipitation Wind Pressure Humidity
00:00 +16°C° 0.1 mm 5 mps 601 mmHg 72%
01:00 +17°C° 0.1 mm 4 mps 601 mmHg 73%
02:00 +17°C° 0.1 mm 3 mps 600 mmHg 73%
03:00 +17°C° 0 mm 3 mps 600 mmHg 73%
04:00 +17°C° 0 mm 3 mps 600 mmHg 72%
05:00 +17°C° 0 mm 3 mps 600 mmHg 71%
06:00 +18°C° 0 mm 4 mps 601 mmHg 69%
07:00 +18°C° 0 mm 4 mps 602 mmHg 67%
08:00 +19°C° 0 mm 5 mps 602 mmHg 65%
09:00 +19°C° 0 mm 5 mps 602 mmHg 63%
10:00 +20°C° 0 mm 5 mps 602 mmHg 61%
11:00 +20°C° 0 mm 6 mps 602 mmHg 59%
12:00 +21°C° 0.2 mm 6 mps 602 mmHg 56%
13:00 +22°C° 0.2 mm 6 mps 602 mmHg 53%
14:00 +23°C° 0.2 mm 7 mps 602 mmHg 50%
15:00 +23°C° 0.2 mm 8 mps 601 mmHg 51%
16:00 +23°C° 0.2 mm 9 mps 601 mmHg 52%
17:00 +22°C° 0.2 mm 10 mps 601 mmHg 53%
18:00 +21°C° 0 mm 8 mps 601 mmHg 59%
19:00 +20°C° 0 mm 6 mps 601 mmHg 65%
20:00 +19°C° 0 mm 5 mps 601 mmHg 71%
21:00 +17°C° 0.1 mm 5 mps 601 mmHg 73%
22:00 +17°C° 0.1 mm 5 mps 601 mmHg 74%
23:00 +17°C° 0.1 mm 5 mps 601 mmHg 76%

Tomorrow, 14 June, Monday

Time Temperature Precipitation Wind Pressure Humidity
00:00 +18°C° 0 mm 4 mps 601 mmHg 77%
01:00 +18°C° 0 mm 3 mps 601 mmHg 77%
02:00 +17°C° 0 mm 3 mps 601 mmHg 78%
03:00 +17°C° 0 mm 3 mps 601 mmHg 78%
04:00 +17°C° 0 mm 3 mps 601 mmHg 78%
05:00 +17°C° 0 mm 2 mps 601 mmHg 77%
06:00 +18°C° 0 mm 3 mps 601 mmHg 72%
07:00 +19°C° 0 mm 3 mps 602 mmHg 67%
08:00 +19°C° 0 mm 4 mps 602 mmHg 62%
09:00 +21°C° 0 mm 4 mps 602 mmHg 54%
10:00 +23°C° 0 mm 5 mps 603 mmHg 46%
11:00 +26°C° 0 mm 5 mps 603 mmHg 38%
12:00 +27°C° 0 mm 6 mps 603 mmHg 36%
13:00 +27°C° 0 mm 7 mps 602 mmHg 33%
14:00 +28°C° 0 mm 8 mps 602 mmHg 31%
15:00 +27°C° 0 mm 8 mps 602 mmHg 32%
16:00 +26°C° 0 mm 9 mps 601 mmHg 34%
17:00 +26°C° 0 mm 9 mps 601 mmHg 35%
18:00 +23°C° 0 mm 9 mps 601 mmHg 42%
19:00 +22°C° 0 mm 9 mps 601 mmHg 48%
20:00 +19°C° 0 mm 9 mps 601 mmHg 55%
21:00 +18°C° 0 mm 7 mps 601 mmHg 59%
22:00 +19°C° 0 mm 6 mps 601 mmHg 62%
23:00 +18°C° 0 mm 4 mps 601 mmHg 66%

Day after tomorrow, 15 June, Tuesday

Time Temperature Precipitation Wind Pressure Humidity
00:00 +17°C° 0 mm 4 mps 601 mmHg 69%
01:00 +17°C° 0 mm 3 mps 600 mmHg 72%
02:00 +16°C° 0 mm 2 mps 600 mmHg 75%
03:00 +16°C° 0 mm 2 mps 600 mmHg 77%
04:00 +16°C° 0 mm 1 mps 600 mmHg 79%
05:00 +15°C° 0 mm 1 mps 600 mmHg 81%
06:00 +17°C° 0 mm 2 mps 601 mmHg 70%
07:00 +18°C° 0 mm 3 mps 602 mmHg 60%
08:00 +20°C° 0 mm 4 mps 602 mmHg 50%
09:00 +22°C° 0 mm 5 mps 603 mmHg 42%
10:00 +24°C° 0 mm 6 mps 603 mmHg 35%
11:00 +26°C° 0 mm 7 mps 604 mmHg 27%
12:00 +27°C° 0 mm 7 mps 603 mmHg 26%
13:00 +28°C° 0 mm 8 mps 603 mmHg 25%
14:00 +28°C° 0 mm 8 mps 603 mmHg 24%
15:00 +28°C° 0 mm 8 mps 603 mmHg 26%
16:00 +27°C° 0 mm 9 mps 602 mmHg 28%
17:00 +26°C° 0 mm 9 mps 602 mmHg 30%
18:00 +24°C° 0 mm 9 mps 602 mmHg 35%
19:00 +22°C° 0 mm 8 mps 602 mmHg 40%
20:00 +21°C° 0 mm 8 mps 602 mmHg 45%
21:00 +20°C° 0 mm 7 mps 602 mmHg 52%
22:00 +19°C° 0 mm 5 mps 602 mmHg 59%
23:00 +18°C° 0 mm 4 mps 602 mmHg 66%

16 June, Wednesday

Time Temperature Precipitation Wind Pressure Humidity
00:00 +18°C° 0 mm 3 mps 601 mmHg 69%
01:00 +17°C° 0 mm 2 mps 601 mmHg 71%
02:00 +18°C° 0 mm 1 mps 601 mmHg 74%
03:00 +16°C° 0 mm 1 mps 601 mmHg 77%
04:00 +16°C° 0 mm 1 mps 601 mmHg 80%
05:00 +15°C° 0 mm 2 mps 601 mmHg 83%
06:00 +17°C° 0 mm 3 mps 601 mmHg 73%
07:00 +18°C° 0 mm 3 mps 602 mmHg 64%
08:00 +20°C° 0 mm 4 mps 603 mmHg 54%
09:00 +22°C° 0 mm 5 mps 603 mmHg 48%
10:00 +23°C° 0 mm 6 mps 603 mmHg 42%
11:00 +26°C° 0 mm 6 mps 603 mmHg 37%
12:00 +26°C° 0 mm 6 mps 603 mmHg 36%
13:00 +26°C° 0 mm 6 mps 602 mmHg 34%
14:00 +26°C° 0 mm 6 mps 602 mmHg 33%
15:00 +26°C° 0 mm 6 mps 602 mmHg 36%
16:00 +24°C° 0 mm 6 mps 602 mmHg 39%
17:00 +23°C° 0 mm 6 mps 601 mmHg 42%
18:00 +22°C° 0 mm 7 mps 601 mmHg 43%
19:00 +21°C° 0 mm 7 mps 601 mmHg 45%
20:00 +21°C° 0 mm 8 mps 602 mmHg 46%
21:00 +20°C° 0 mm 7 mps 601 mmHg 54%
22:00 +19°C° 0 mm 6 mps 601 mmHg 62%
23:00 +17°C° 0 mm 5 mps 601 mmHg 70%

17 June, Thursday

Time Temperature Precipitation Wind Pressure Humidity
00:00 +17°C° 0 mm 4 mps 601 mmHg 73%
01:00 +16°C° 0 mm 3 mps 600 mmHg 76%
02:00 +16°C° 0 mm 2 mps 600 mmHg 80%
03:00 +16°C° 0 mm 2 mps 600 mmHg 82%
04:00 +15°C° 0 mm 2 mps 600 mmHg 83%
05:00 +15°C° 0 mm 2 mps 600 mmHg 85%
06:00 +16°C° 0 mm 3 mps 600 mmHg 76%
07:00 +18°C° 0 mm 4 mps 601 mmHg 67%
08:00 +19°C° 0 mm 4 mps 602 mmHg 58%
09:00 +21°C° 0 mm 5 mps 602 mmHg 51%
10:00 +23°C° 0 mm 6 mps 602 mmHg 45%
11:00 +24°C° 0 mm 6 mps 602 mmHg 38%
12:00 +26°C° 0 mm 6 mps 602 mmHg 37%
13:00 +26°C° 0 mm 7 mps 601 mmHg 37%
14:00 +26°C° 0 mm 7 mps 601 mmHg 37%
15:00 +24°C° 0 mm 8 mps 601 mmHg 40%
16:00 +23°C° 0 mm 9 mps 600 mmHg 43%
17:00 +23°C° 0 mm 10 mps 600 mmHg 47%
18:00 +21°C° 0 mm 9 mps 600 mmHg 53%
19:00 +20°C° 0 mm 8 mps 600 mmHg 59%
20:00 +18°C° 0 mm 7 mps 600 mmHg 65%
21:00 +17°C° 0 mm 6 mps 600 mmHg 69%
22:00 +17°C° 0 mm 4 mps 600 mmHg 73%
23:00 +17°C° 0 mm 3 mps 601 mmHg 77%

18 June, Friday

Time Temperature Precipitation Wind Pressure Humidity
00:00 +16°C° 0 mm 3 mps 600 mmHg 78%
01:00 +16°C° 0 mm 2 mps 600 mmHg 80%
02:00 +16°C° 0 mm 2 mps 599 mmHg 82%
03:00 +15°C° 0 mm 2 mps 599 mmHg 84%
04:00 +15°C° 0 mm 2 mps 599 mmHg 85%
05:00 +15°C° 0 mm 2 mps 599 mmHg 87%
06:00 +16°C° 0 mm 3 mps 600 mmHg 78%
07:00 +17°C° 0 mm 3 mps 601 mmHg 69%
08:00 +19°C° 0 mm 4 mps 601 mmHg 60%
09:00 +21°C° 0 mm 4 mps 602 mmHg 52%
10:00 +23°C° 0 mm 5 mps 602 mmHg 44%
11:00 +26°C° 0 mm 5 mps 602 mmHg 35%
12:00 +26°C° 0 mm 6 mps 602 mmHg 34%
13:00 +27°C° 0 mm 6 mps 602 mmHg 32%
14:00 +28°C° 0 mm 7 mps 601 mmHg 30%
15:00 +27°C° 0 mm 7 mps 601 mmHg 33%
16:00 +26°C° 0 mm 8 mps 601 mmHg 35%
17:00 +24°C° 0 mm 8 mps 600 mmHg 38%
18:00 +23°C° 0 mm 8 mps 600 mmHg 45%
19:00 +22°C° 0 mm 8 mps 600 mmHg 52%
20:00 +21°C° 0 mm 7 mps 601 mmHg 58%
21:00 +20°C° 0 mm 6 mps 601 mmHg 63%
22:00 +19°C° 0 mm 5 mps 601 mmHg 67%
23:00 +19°C° 0 mm 4 mps 601 mmHg 72%
Show more